Flag for India Weather past 2 weeks in Amravati, Maharashtra, India

Now
99 °F

Passing clouds.


Feels Like: 100 °F
Forecast: 91 / 110 °F
Wind: 2 mph from Northwest

Location: Nagpur Sonegaon

Current Time: May 30, 2015 at 12:26:05 AM

Latest Report: May 29, 2015 at 11:40 PM


Visibility: 3 mi

Pressure: 29.62 "Hg

Humidity: 31%

Dew point: 63 °F

Location of AmravatiLocation

Historic Weather in Amravati — Graph

°F

Amravati temperature yesterday

Maximum temperature yesterday: 118 °F (at 1:40 PM)
Minimum temperature yesterday: 86 °F (at 5:10 AM)
Average temperature yesterday: 103 °F

Past Weeks' High & Low Weather Summary

 TemperatureHumidityPressure
High118 °F (May 19, 2:40 PM)89% (May 15, 5:10 PM)29.92 "Hg (May 15, 5:10 PM)
Low72 °F (May 15, 2:40 PM)8% (May 19, 5:10 PM)29.50 "Hg (May 19, 4:10 PM)
Average98 °F33%29.66 "Hg
* Reported May 14 10:40 PM — May 29 11:10 PM, Amravati, Weather by CustomWeather, © 2015

Note: Actual official high and low records may vary slightly from our data, if they occured in-between our weather recording intervals... More about our weather records

Advertising

Amravati weather history for previous 24 hours

 ConditionsComfort  
Time TempWeatherWind HumidityBarometerVisibility
11:10 PM
Fri, May 29
99 °FPassing clouds.5 mph31%29.62 "Hg3 mi
8:10 PM104 °FHaze.5 mph26%29.59 "Hg3 mi
7:40 PM108 °FHaze.2 mph23%29.59 "Hg3 mi
6:40 PM111 °FHaze.3 mph21%29.56 "Hg3 mi
6:10 PM113 °FScattered clouds.3 mph22%29.56 "Hg3 mi
5:40 PM115 °FScattered clouds.2 mph21%29.56 "Hg3 mi
4:40 PM117 °FScattered clouds.6 mph19%29.53 "Hg3 mi
3:40 PM117 °FScattered clouds.6 mph19%29.56 "Hg3 mi
3:10 PM117 °FScattered clouds.6 mph18%29.56 "Hg3 mi
1:40 PM118 °FScattered clouds.6 mph19%29.59 "Hg3 mi
1:10 PM117 °FScattered clouds.5 mph17%29.62 "Hg3 mi
12:40 PM115 °FHaze.8 mph18%29.62 "Hg3 mi
11:10 AM109 °FHaze.9 mph19%29.65 "Hg3 mi
10:40 AM109 °FHaze.14 mph19%29.68 "Hg3 mi
10:10 AM108 °FHaze.13 mph20%29.68 "Hg3 mi
9:40 AM106 °FHaze.12 mph22%29.68 "Hg3 mi
9:10 AM106 °FHaze.12 mph22%29.68 "Hg3 mi
8:40 AM104 °FHaze.12 mph23%29.68 "Hg3 mi
8:10 AM100 °FHaze.7 mph25%29.68 "Hg3 mi
7:10 AM91 °FScattered clouds.3 mph34%29.65 "Hg3 mi
6:40 AM90 °FScattered clouds.No wind38%29.65 "Hg3 mi
6:10 AM88 °FScattered clouds.2 mph40%29.62 "Hg2 mi
5:40 AM90 °FPassing clouds.6 mph36%29.62 "Hg2 mi
5:10 AM86 °FPassing clouds.3 mph40%29.59 "Hg2 mi
4:40 AM90 °FPassing clouds.3 mph36%29.59 "Hg2 mi
3:40 AM91 °FPassing clouds.7 mph34%29.59 "Hg2 mi
2:40 AM88 °FPassing clouds.5 mph40%29.59 "Hg2 mi
2:10 AM91 °FPassing clouds.No wind36%29.59 "Hg3 mi
12:10 AM91 °FPassing clouds.No wind34%29.62 "Hg3 mi
Weather by CustomWeather, © 2015

See weather overviewHow to use our weather pages